﻿測定場所 (Monitoring sites),日付 (Measurement date),時間 (Measurement time),線量率 最大値 (max) μGy/h,線量率 最小値 (min) μGy/h,線量率 平均値 (average) μGy/h,
江戸川 (Edogawa),2015-07-12,23:01～24:00,0.0669,0.0603,0.0637,
江戸川 (Edogawa),2015-07-12,22:01～23:00,0.0666,0.0597,0.0635,
江戸川 (Edogawa),2015-07-12,21:01～22:00,0.0683,0.0591,0.0634,
江戸川 (Edogawa),2015-07-12,20:01～21:00,0.0676,0.0611,0.0637,
江戸川 (Edogawa),2015-07-12,19:01～20:00,0.0660,0.0591,0.0635,
江戸川 (Edogawa),2015-07-12,18:01～19:00,0.0676,0.0618,0.0645,
江戸川 (Edogawa),2015-07-12,17:01～18:00,0.0679,0.0598,0.0638,
江戸川 (Edogawa),2015-07-12,16:01～17:00,0.0669,0.0603,0.0635,
江戸川 (Edogawa),2015-07-12,15:01～16:00,0.0679,0.0599,0.0640,
江戸川 (Edogawa),2015-07-12,14:01～15:00,0.0669,0.0615,0.0645,
江戸川 (Edogawa),2015-07-12,13:01～14:00,0.0672,0.0612,0.0642,
江戸川 (Edogawa),2015-07-12,12:01～13:00,0.0690,0.0609,0.0644,
江戸川 (Edogawa),2015-07-12,11:01～12:00,0.0696,0.0604,0.0638,
江戸川 (Edogawa),2015-07-12,10:01～11:00,0.0665,0.0601,0.0636,
江戸川 (Edogawa),2015-07-12,09:01～10:00,0.0670,0.0605,0.0636,
江戸川 (Edogawa),2015-07-12,08:01～09:00,0.0674,0.0602,0.0634,
江戸川 (Edogawa),2015-07-12,07:01～08:00,0.0669,0.0604,0.0636,
江戸川 (Edogawa),2015-07-12,06:01～07:00,0.0666,0.0594,0.0635,
江戸川 (Edogawa),2015-07-12,05:01～06:00,0.0671,0.0595,0.0630,
江戸川 (Edogawa),2015-07-12,04:01～05:00,0.0673,0.0592,0.0633,
江戸川 (Edogawa),2015-07-12,03:01～04:00,0.0669,0.0600,0.0635,
江戸川 (Edogawa),2015-07-12,02:01～03:00,0.0678,0.0611,0.0637,
江戸川 (Edogawa),2015-07-12,01:01～02:00,0.0681,0.0602,0.0636,
江戸川 (Edogawa),2015-07-12,00:01～01:00,0.0676,0.0591,0.0631,
江戸川 (Edogawa),2015-07-11,23:01～24:00,0.0665,0.0611,0.0637,
江戸川 (Edogawa),2015-07-11,22:01～23:00,0.0665,0.0597,0.0630,
江戸川 (Edogawa),2015-07-11,21:01～22:00,0.0661,0.0605,0.0633,
江戸川 (Edogawa),2015-07-11,20:01～21:00,0.0664,0.0595,0.0628,
江戸川 (Edogawa),2015-07-11,19:01～20:00,0.0673,0.0595,0.0631,
江戸川 (Edogawa),2015-07-11,18:01～19:00,0.0661,0.0591,0.0626,
江戸川 (Edogawa),2015-07-11,17:01～18:00,0.0655,0.0599,0.0628,
江戸川 (Edogawa),2015-07-11,16:01～17:00,0.0672,0.0607,0.0637,
江戸川 (Edogawa),2015-07-11,15:01～16:00,0.0667,0.0593,0.0631,
江戸川 (Edogawa),2015-07-11,14:01～15:00,0.0663,0.0585,0.0636,
江戸川 (Edogawa),2015-07-11,13:01～14:00,0.0664,0.0596,0.0631,
江戸川 (Edogawa),2015-07-11,12:01～13:00,0.0680,0.0593,0.0629,
江戸川 (Edogawa),2015-07-11,11:01～12:00,0.0659,0.0583,0.0626,
江戸川 (Edogawa),2015-07-11,10:01～11:00,0.0671,0.0597,0.0629,
江戸川 (Edogawa),2015-07-11,09:01～10:00,0.0660,0.0602,0.0628,
江戸川 (Edogawa),2015-07-11,08:01～09:00,0.0662,0.0590,0.0625,
江戸川 (Edogawa),2015-07-11,07:01～08:00,0.0664,0.0592,0.0623,
江戸川 (Edogawa),2015-07-11,06:01～07:00,0.0659,0.0589,0.0624,
江戸川 (Edogawa),2015-07-11,05:01～06:00,0.0656,0.0579,0.0622,
江戸川 (Edogawa),2015-07-11,04:01～05:00,0.0660,0.0591,0.0622,
江戸川 (Edogawa),2015-07-11,03:01～04:00,0.0659,0.0595,0.0622,
江戸川 (Edogawa),2015-07-11,02:01～03:00,0.0655,0.0596,0.0624,
江戸川 (Edogawa),2015-07-11,01:01～02:00,0.0661,0.0590,0.0622,
江戸川 (Edogawa),2015-07-11,00:01～01:00,0.0656,0.0581,0.0624,
江戸川 (Edogawa),2015-07-10,23:01～24:00,0.0663,0.0589,0.0626,
江戸川 (Edogawa),2015-07-10,22:01～23:00,0.0658,0.0594,0.0629,
江戸川 (Edogawa),2015-07-10,21:01～22:00,0.0672,0.0590,0.0619,
江戸川 (Edogawa),2015-07-10,20:01～21:00,0.0659,0.0596,0.0623,
江戸川 (Edogawa),2015-07-10,19:01～20:00,0.0655,0.0580,0.0624,
江戸川 (Edogawa),2015-07-10,18:01～19:00,0.0667,0.0588,0.0623,
江戸川 (Edogawa),2015-07-10,17:01～18:00,0.0656,0.0585,0.0623,
江戸川 (Edogawa),2015-07-10,16:01～17:00,0.0660,0.0598,0.0624,
江戸川 (Edogawa),2015-07-10,15:01～16:00,0.0663,0.0599,0.0633,
江戸川 (Edogawa),2015-07-10,14:01～15:00,0.0678,0.0591,0.0628,
江戸川 (Edogawa),2015-07-10,13:01～14:00,0.0670,0.0595,0.0629,
江戸川 (Edogawa),2015-07-10,12:01～13:00,0.0657,0.0586,0.0624,
江戸川 (Edogawa),2015-07-10,11:01～12:00,0.0655,0.0576,0.0623,
江戸川 (Edogawa),2015-07-10,10:01～11:00,0.0658,0.0595,0.0621,
江戸川 (Edogawa),2015-07-10,09:01～10:00,0.0651,0.0585,0.0618,
江戸川 (Edogawa),2015-07-10,08:01～09:00,0.0666,0.0572,0.0615,
江戸川 (Edogawa),2015-07-10,07:01～08:00,0.0659,0.0582,0.0618,
江戸川 (Edogawa),2015-07-10,06:01～07:00,0.0640,0.0566,0.0616,
江戸川 (Edogawa),2015-07-10,05:01～06:00,0.0656,0.0579,0.0614,
江戸川 (Edogawa),2015-07-10,04:01～05:00,0.0647,0.0583,0.0614,
江戸川 (Edogawa),2015-07-10,03:01～04:00,0.0651,0.0573,0.0616,
江戸川 (Edogawa),2015-07-10,02:01～03:00,0.0659,0.0588,0.0615,
江戸川 (Edogawa),2015-07-10,01:01～02:00,0.0661,0.0587,0.0630,
江戸川 (Edogawa),2015-07-10,00:01～01:00,0.0660,0.0595,0.0628,
江戸川 (Edogawa),2015-07-09,23:01～24:00,0.0688,0.0579,0.0627,
江戸川 (Edogawa),2015-07-09,22:01～23:00,0.0656,0.0580,0.0612,
江戸川 (Edogawa),2015-07-09,21:01～22:00,0.0652,0.0570,0.0613,
江戸川 (Edogawa),2015-07-09,20:01～21:00,0.0668,0.0586,0.0619,
江戸川 (Edogawa),2015-07-09,19:01～20:00,0.0694,0.0604,0.0646,
江戸川 (Edogawa),2015-07-09,18:01～19:00,0.0717,0.0625,0.0670,
江戸川 (Edogawa),2015-07-09,17:01～18:00,0.0729,0.0630,0.0672,
江戸川 (Edogawa),2015-07-09,16:01～17:00,0.0701,0.0624,0.0659,
江戸川 (Edogawa),2015-07-09,15:01～16:00,0.0675,0.0593,0.0631,
江戸川 (Edogawa),2015-07-09,14:01～15:00,0.0658,0.0591,0.0628,
江戸川 (Edogawa),2015-07-09,13:01～14:00,0.0675,0.0589,0.0630,
江戸川 (Edogawa),2015-07-09,12:01～13:00,0.0691,0.0608,0.0656,
江戸川 (Edogawa),2015-07-09,11:01～12:00,0.0700,0.0620,0.0652,
江戸川 (Edogawa),2015-07-09,10:01～11:00,0.0692,0.0585,0.0641,
江戸川 (Edogawa),2015-07-09,09:01～10:00,0.0660,0.0586,0.0618,
江戸川 (Edogawa),2015-07-09,08:01～09:00,0.0662,0.0586,0.0620,
江戸川 (Edogawa),2015-07-09,07:01～08:00,0.0648,0.0588,0.0617,
江戸川 (Edogawa),2015-07-09,06:01～07:00,0.0664,0.0581,0.0625,
江戸川 (Edogawa),2015-07-09,05:01～06:00,0.0681,0.0619,0.0645,
江戸川 (Edogawa),2015-07-09,04:01～05:00,0.0687,0.0609,0.0643,
江戸川 (Edogawa),2015-07-09,03:01～04:00,0.0674,0.0607,0.0639,
江戸川 (Edogawa),2015-07-09,02:01～03:00,0.0673,0.0590,0.0628,
江戸川 (Edogawa),2015-07-09,01:01～02:00,0.0663,0.0553,0.0627,
江戸川 (Edogawa),2015-07-09,00:01～01:00,0.0686,0.0590,0.0624,
江戸川 (Edogawa),2015-07-08,23:01～24:00,0.0660,0.0598,0.0627,
江戸川 (Edogawa),2015-07-08,22:01～23:00,0.0677,0.0588,0.0633,
江戸川 (Edogawa),2015-07-08,21:01～22:00,0.0661,0.0582,0.0626,
江戸川 (Edogawa),2015-07-08,20:01～21:00,0.0667,0.0596,0.0630,
江戸川 (Edogawa),2015-07-08,19:01～20:00,0.0678,0.0600,0.0636,
江戸川 (Edogawa),2015-07-08,18:01～19:00,0.0662,0.0611,0.0634,
江戸川 (Edogawa),2015-07-08,17:01～18:00,0.0658,0.0596,0.0621,
江戸川 (Edogawa),2015-07-08,16:01～17:00,0.0663,0.0593,0.0624,
江戸川 (Edogawa),2015-07-08,15:01～16:00,0.0659,0.0591,0.0626,
江戸川 (Edogawa),2015-07-08,14:01～15:00,0.0662,0.0594,0.0629,
江戸川 (Edogawa),2015-07-08,13:01～14:00,0.0663,0.0598,0.0626,
江戸川 (Edogawa),2015-07-08,12:01～13:00,0.0657,0.0580,0.0620,
江戸川 (Edogawa),2015-07-08,11:01～12:00,0.0660,0.0589,0.0624,
江戸川 (Edogawa),2015-07-08,10:01～11:00,0.0662,0.0573,0.0620,
江戸川 (Edogawa),2015-07-08,09:01～10:00,0.0658,0.0591,0.0625,
江戸川 (Edogawa),2015-07-08,08:01～09:00,0.0661,0.0583,0.0622,
江戸川 (Edogawa),2015-07-08,07:01～08:00,0.0649,0.0594,0.0620,
江戸川 (Edogawa),2015-07-08,06:01～07:00,0.0652,0.0570,0.0620,
江戸川 (Edogawa),2015-07-08,05:01～06:00,0.0667,0.0572,0.0618,
江戸川 (Edogawa),2015-07-08,04:01～05:00,0.0664,0.0588,0.0617,
江戸川 (Edogawa),2015-07-08,03:01～04:00,0.0650,0.0585,0.0618,
江戸川 (Edogawa),2015-07-08,02:01～03:00,0.0663,0.0584,0.0624,
江戸川 (Edogawa),2015-07-08,01:01～02:00,0.0654,0.0587,0.0621,
江戸川 (Edogawa),2015-07-08,00:01～01:00,0.0692,0.0579,0.0622,
江戸川 (Edogawa),2015-07-07,23:01～24:00,0.0653,0.0589,0.0619,
江戸川 (Edogawa),2015-07-07,22:01～23:00,0.0666,0.0583,0.0621,
江戸川 (Edogawa),2015-07-07,21:01～22:00,0.0647,0.0593,0.0616,
江戸川 (Edogawa),2015-07-07,20:01～21:00,0.0679,0.0590,0.0626,
江戸川 (Edogawa),2015-07-07,19:01～20:00,0.0660,0.0588,0.0625,
江戸川 (Edogawa),2015-07-07,18:01～19:00,0.0661,0.0594,0.0620,
江戸川 (Edogawa),2015-07-07,17:01～18:00,0.0651,0.0588,0.0621,
江戸川 (Edogawa),2015-07-07,16:01～17:00,0.0669,0.0582,0.0617,
江戸川 (Edogawa),2015-07-07,15:01～16:00,0.0658,0.0587,0.0619,
江戸川 (Edogawa),2015-07-07,14:01～15:00,0.0674,0.0589,0.0622,
江戸川 (Edogawa),2015-07-07,13:01～14:00,0.0653,0.0579,0.0621,
江戸川 (Edogawa),2015-07-07,12:01～13:00,0.0660,0.0591,0.0624,
江戸川 (Edogawa),2015-07-07,11:01～12:00,0.0640,0.0582,0.0618,
江戸川 (Edogawa),2015-07-07,10:01～11:00,0.0654,0.0590,0.0621,
江戸川 (Edogawa),2015-07-07,09:01～10:00,0.0660,0.0583,0.0613,
江戸川 (Edogawa),2015-07-07,08:01～09:00,0.0653,0.0584,0.0616,
江戸川 (Edogawa),2015-07-07,07:01～08:00,0.0655,0.0584,0.0617,
江戸川 (Edogawa),2015-07-07,06:01～07:00,0.0670,0.0587,0.0619,
江戸川 (Edogawa),2015-07-07,05:01～06:00,0.0664,0.0582,0.0615,
江戸川 (Edogawa),2015-07-07,04:01～05:00,0.0660,0.0586,0.0614,
江戸川 (Edogawa),2015-07-07,03:01～04:00,0.0644,0.0571,0.0616,
江戸川 (Edogawa),2015-07-07,02:01～03:00,0.0658,0.0582,0.0616,
江戸川 (Edogawa),2015-07-07,01:01～02:00,0.0648,0.0585,0.0617,
江戸川 (Edogawa),2015-07-07,00:01～01:00,0.0642,0.0571,0.0612,
江戸川 (Edogawa),2015-07-06,23:01～24:00,0.0642,0.0582,0.0612,
江戸川 (Edogawa),2015-07-06,22:01～23:00,0.0651,0.0578,0.0617,
江戸川 (Edogawa),2015-07-06,21:01～22:00,0.0643,0.0565,0.0616,
江戸川 (Edogawa),2015-07-06,20:01～21:00,0.0674,0.0595,0.0636,
江戸川 (Edogawa),2015-07-06,19:01～20:00,0.0689,0.0605,0.0652,
江戸川 (Edogawa),2015-07-06,18:01～19:00,0.0685,0.0622,0.0646,
江戸川 (Edogawa),2015-07-06,17:01～18:00,0.0677,0.0613,0.0647,
江戸川 (Edogawa),2015-07-06,16:01～17:00,0.0702,0.0615,0.0654,
江戸川 (Edogawa),2015-07-06,15:01～16:00,0.0693,0.0610,0.0657,
江戸川 (Edogawa),2015-07-06,14:01～15:00,0.0699,0.0628,0.0666,
江戸川 (Edogawa),2015-07-06,13:01～14:00,0.0698,0.0628,0.0662,
江戸川 (Edogawa),2015-07-06,12:01～13:00,0.0699,0.0616,0.0666,
江戸川 (Edogawa),2015-07-06,11:01～12:00,0.0750,0.0634,0.0681,
江戸川 (Edogawa),2015-07-06,10:01～11:00,0.0761,0.0658,0.0702,
江戸川 (Edogawa),2015-07-06,09:01～10:00,0.0722,0.0636,0.0675,
江戸川 (Edogawa),2015-07-06,08:01～09:00,0.0703,0.0632,0.0666,
江戸川 (Edogawa),2015-07-06,07:01～08:00,0.0709,0.0621,0.0656,
江戸川 (Edogawa),2015-07-06,06:01～07:00,0.0680,0.0606,0.0644,
江戸川 (Edogawa),2015-07-06,05:01～06:00,0.0696,0.0618,0.0660,
江戸川 (Edogawa),2015-07-06,04:01～05:00,0.0703,0.0619,0.0660,
江戸川 (Edogawa),2015-07-06,03:01～04:00,0.0680,0.0587,0.0629,
江戸川 (Edogawa),2015-07-06,02:01～03:00,0.0664,0.0579,0.0622,
江戸川 (Edogawa),2015-07-06,01:01～02:00,0.0664,0.0580,0.0619,
江戸川 (Edogawa),2015-07-06,00:01～01:00,0.0651,0.0589,0.0622,
